Time,TemperatureF,DewpointF,PressureIn,WindDirection,WindDirectionDegrees,WindSpeedMPH,WindSpeedGustMPH,Humidity,HourlyPrecipIn,Conditions,Clouds,dailyrainin,SoftwareType,DateUTC
2013-06-20 00:06:00,74.1,61.5,30.01,SE,135,7.1,23.4,65,0.00,,,0.00,WUHU21636XXSP,2013-06-20 05:06:00,
2013-06-20 00:16:00,74.1,61.5,30.01,SSE,157,7.8,27.0,65,0.00,,,0.00,WUHU21636XXSP,2013-06-20 05:16:00,
2013-06-20 00:26:00,73.8,62.1,30.01,SSW,202,12.5,22.5,67,0.00,,,0.00,WUHU21636XXSP,2013-06-20 05:26:00,
2013-06-20 00:36:00,73.6,61.9,30.01,SE,135,7.8,21.0,67,0.00,,,0.00,WUHU21636XXSP,2013-06-20 05:36:00,
2013-06-20 00:46:00,73.2,62.1,30.01,South,180,5.3,25.9,68,0.00,,,0.00,WUHU21636XXSP,2013-06-20 05:46:00,
2013-06-20 00:56:00,73.0,62.2,30.01,SSE,157,8.9,21.0,69,0.00,,,0.00,WUHU21636XXSP,2013-06-20 05:56:00,
2013-06-20 01:06:00,72.7,61.9,30.01,SSE,157,4.0,21.9,69,0.00,,,0.00,WUHU21636XXSP,2013-06-20 06:06:00,
2013-06-20 01:16:00,72.5,62.2,30.00,SSE,157,7.1,18.7,70,0.00,,,0.00,WUHU21636XXSP,2013-06-20 06:16:00,
2013-06-20 01:26:00,72.3,62.4,30.00,SSW,202,6.0,15.2,71,0.00,,,0.00,WUHU21636XXSP,2013-06-20 06:26:00,
2013-06-20 01:36:00,72.1,62.2,30.00,SSE,157,8.9,18.3,71,0.00,,,0.00,WUHU21636XXSP,2013-06-20 06:36:00,
2013-06-20 01:46:00,71.8,62.2,30.00,SSE,157,5.8,16.3,72,0.00,,,0.00,WUHU21636XXSP,2013-06-20 06:46:00,
2013-06-20 01:56:00,71.6,62.1,30.00,SSW,202,6.7,18.5,72,0.00,,,0.00,WUHU21636XXSP,2013-06-20 06:56:00,
2013-06-20 02:06:00,71.4,62.2,30.00,SSW,202,7.6,19.4,73,0.00,,,0.00,WUHU21636XXSP,2013-06-20 07:06:00,
2013-06-20 02:16:00,71.2,62.4,29.99,SE,135,2.9,14.9,74,0.00,,,0.00,WUHU21636XXSP,2013-06-20 07:16:00,
2013-06-20 02:26:00,71.1,62.6,29.99,SSW,202,1.7,4.2,75,0.00,,,0.00,WUHU21636XXSP,2013-06-20 07:26:00,
2013-06-20 02:36:00,70.9,62.4,29.98,SSE,157,2.6,10.5,75,0.00,,,0.00,WUHU21636XXSP,2013-06-20 07:36:00,
2013-06-20 02:46:00,70.7,62.6,29.98,SSE,157,7.6,13.6,76,0.00,,,0.00,WUHU21636XXSP,2013-06-20 07:46:00,
2013-06-20 02:56:00,70.5,62.8,29.98,SE,135,7.3,10.7,77,0.00,,,0.00,WUHU21636XXSP,2013-06-20 07:56:00,
2013-06-20 03:06:00,70.3,62.6,29.97,SE,135,7.3,20.3,77,0.00,,,0.00,WUHU21636XXSP,2013-06-20 08:06:00,
2013-06-20 03:16:00,70.3,63.0,29.97,SSE,157,6.7,19.0,78,0.00,,,0.00,WUHU21636XXSP,2013-06-20 08:16:00,
2013-06-20 03:26:00,70.3,63.0,29.96,SSE,157,8.5,23.4,78,0.00,,,0.00,WUHU21636XXSP,2013-06-20 08:26:00,
2013-06-20 03:36:00,70.2,62.8,29.96,South,180,7.8,21.0,78,0.00,,,0.00,WUHU21636XXSP,2013-06-20 08:36:00,
2013-06-20 03:46:00,70.0,62.6,29.96,SE,135,7.8,20.3,78,0.00,,,0.00,WUHU21636XXSP,2013-06-20 08:46:00,
2013-06-20 03:56:00,70.0,62.6,29.96,SSE,157,4.9,20.5,78,0.00,,,0.00,WUHU21636XXSP,2013-06-20 08:56:00,
2013-06-20 04:06:00,69.6,62.2,29.96,SE,135,6.7,13.6,78,0.00,,,0.00,WUHU21636XXSP,2013-06-20 09:06:00,
2013-06-20 04:16:00,69.6,62.8,29.96,South,180,8.7,14.3,79,0.00,,,0.00,WUHU21636XXSP,2013-06-20 09:16:00,
2013-06-20 04:26:00,69.4,62.6,29.96,SSE,157,6.4,21.0,79,0.00,,,0.00,WUHU21636XXSP,2013-06-20 09:26:00,
2013-06-20 04:36:00,69.4,62.6,29.96,South,180,8.9,17.6,79,0.00,,,0.00,WUHU21636XXSP,2013-06-20 09:36:00,
2013-06-20 04:46:00,69.3,62.8,29.95,SSW,202,11.6,17.6,80,0.00,,,0.00,WUHU21636XXSP,2013-06-20 09:46:00,
2013-06-20 04:56:00,69.1,63.0,29.94,SE,135,7.6,20.8,81,0.00,,,0.00,WUHU21636XXSP,2013-06-20 09:56:00,
2013-06-20 05:06:00,68.9,62.8,29.94,SSW,202,2.9,16.7,81,0.00,,,0.00,WUHU21636XXSP,2013-06-20 10:06:00,
2013-06-20 05:16:00,68.7,62.6,29.94,South,180,7.8,18.1,81,0.00,,,0.00,WUHU21636XXSP,2013-06-20 10:16:00,
2013-06-20 05:26:00,68.5,62.8,29.94,SE,135,2.2,12.3,82,0.00,,,0.00,WUHU21636XXSP,2013-06-20 10:26:00,
2013-06-20 05:36:00,68.5,62.8,29.95,South,180,5.5,16.3,82,0.00,,,0.00,WUHU21636XXSP,2013-06-20 10:36:00,
2013-06-20 05:46:00,68.4,63.0,29.94,South,180,4.9,13.4,83,0.00,,,0.00,WUHU21636XXSP,2013-06-20 10:46:00,
2013-06-20 05:56:00,68.4,63.0,29.94,South,180,5.1,20.8,83,0.00,,,0.00,WUHU21636XXSP,2013-06-20 10:56:00,
2013-06-20 06:06:00,68.2,62.8,29.94,South,180,6.2,13.8,83,0.00,,,0.00,WUHU21636XXSP,2013-06-20 11:06:00,
2013-06-20 06:16:00,68.2,63.1,29.94,South,180,9.3,15.4,84,0.00,,,0.00,WUHU21636XXSP,2013-06-20 11:16:00,
2013-06-20 06:26:00,68.0,63.0,29.94,SSW,202,6.0,15.6,84,0.00,,,0.00,WUHU21636XXSP,2013-06-20 11:26:00,
2013-06-20 06:36:00,68.0,63.0,29.95,SSE,157,4.6,17.4,84,0.00,,,0.00,WUHU21636XXSP,2013-06-20 11:36:00,
2013-06-20 06:46:00,68.0,63.0,29.94,SSE,157,6.0,14.3,84,0.00,,,0.00,WUHU21636XXSP,2013-06-20 11:46:00,
2013-06-20 06:56:00,68.0,63.3,29.94,SSW,202,6.2,15.2,85,0.00,,,0.00,WUHU21636XXSP,2013-06-20 11:56:00,
2013-06-20 07:06:00,68.2,63.1,29.94,SSW,202,7.6,16.5,84,0.00,,,0.00,WUHU21636XXSP,2013-06-20 12:06:00,
2013-06-20 07:16:00,68.4,63.3,29.94,SSE,157,8.2,14.5,84,0.00,,,0.00,WUHU21636XXSP,2013-06-20 12:16:00,
2013-06-20 07:26:00,68.4,63.3,29.94,South,180,6.7,16.1,84,0.00,,,0.00,WUHU21636XXSP,2013-06-20 12:26:00,
2013-06-20 07:36:00,68.5,63.5,29.95,SSE,157,7.1,16.1,84,0.00,,,0.00,WUHU21636XXSP,2013-06-20 12:36:00,
2013-06-20 07:46:00,68.7,63.5,29.95,SSW,202,9.8,16.1,84,0.00,,,0.00,WUHU21636XXSP,2013-06-20 12:46:00,
2013-06-20 07:57:00,69.4,63.9,29.95,SSW,202,8.7,21.6,83,0.00,,,0.00,WUHU21636XXSP,2013-06-20 12:57:00,
2013-06-20 08:07:00,69.6,63.7,29.95,SW,225,10.7,23.2,82,0.00,,,0.00,WUHU21636XXSP,2013-06-20 13:07:00,
2013-06-20 08:17:00,70.2,63.9,29.95,SW,225,8.2,21.2,81,0.00,,,0.00,WUHU21636XXSP,2013-06-20 13:17:00,
2013-06-20 08:27:00,70.5,64.0,29.95,South,180,10.5,24.6,80,0.00,,,0.00,WUHU21636XXSP,2013-06-20 13:27:00,
2013-06-20 08:37:00,70.9,63.9,29.96,SSW,202,14.7,23.9,79,0.00,,,0.00,WUHU21636XXSP,2013-06-20 13:37:00,
2013-06-20 08:47:00,71.2,63.9,29.96,SSW,202,12.0,24.6,78,0.00,,,0.00,WUHU21636XXSP,2013-06-20 13:47:00,
2013-06-20 08:57:00,71.2,63.9,29.97,SSW,202,12.9,25.7,78,0.00,,,0.00,WUHU21636XXSP,2013-06-20 13:57:00,
2013-06-20 09:07:00,71.6,63.9,29.96,South,180,15.6,23.9,77,0.00,,,0.00,WUHU21636XXSP,2013-06-20 14:07:00,
2013-06-20 09:17:00,71.8,64.0,29.96,SSW,202,10.9,21.0,77,0.00,,,0.00,WUHU21636XXSP,2013-06-20 14:17:00,
2013-06-20 09:27:00,72.5,64.4,29.97,SW,225,9.1,23.0,76,0.00,,,0.00,WUHU21636XXSP,2013-06-20 14:27:00,
2013-06-20 09:37:00,73.0,64.2,29.97,SSW,202,12.3,22.8,74,0.00,,,0.00,WUHU21636XXSP,2013-06-20 14:37:00,
2013-06-20 09:47:00,73.6,64.8,29.97,South,180,12.3,20.8,74,0.00,,,0.00,WUHU21636XXSP,2013-06-20 14:47:00,
2013-06-20 09:57:00,74.1,64.4,29.96,SSW,202,12.7,21.2,72,0.00,,,0.00,WUHU21636XXSP,2013-06-20 14:57:00,
2013-06-20 10:07:00,74.5,64.8,29.96,SSW,202,10.9,23.9,72,0.00,,,0.00,WUHU21636XXSP,2013-06-20 15:07:00,
2013-06-20 10:17:00,75.4,64.9,29.96,SW,225,14.7,27.5,70,0.00,,,0.00,WUHU21636XXSP,2013-06-20 15:17:00,
2013-06-20 10:27:00,75.9,64.6,29.96,SSW,202,8.7,24.8,68,0.00,,,0.00,WUHU21636XXSP,2013-06-20 15:27:00,
2013-06-20 10:37:00,76.8,64.9,29.96,SW,225,13.6,22.1,67,0.00,,,0.00,WUHU21636XXSP,2013-06-20 15:37:00,
2013-06-20 10:47:00,77.2,64.8,29.96,SW,225,9.3,21.6,66,0.00,,,0.00,WUHU21636XXSP,2013-06-20 15:47:00,
2013-06-20 10:57:00,77.9,64.6,29.95,SSW,202,12.9,25.2,64,0.00,,,0.00,WUHU21636XXSP,2013-06-20 15:57:00,
2013-06-20 11:07:00,78.6,65.3,29.96,South,180,10.0,21.0,64,0.00,,,0.00,WUHU21636XXSP,2013-06-20 16:07:00,
2013-06-20 11:17:00,79.5,65.7,29.96,SSW,202,11.4,22.8,63,0.00,,,0.00,WUHU21636XXSP,2013-06-20 16:17:00,
2013-06-20 11:27:00,79.9,65.1,29.96,WSW,247,6.0,22.8,61,0.00,,,0.00,WUHU21636XXSP,2013-06-20 16:27:00,
2013-06-20 11:37:00,80.8,66.0,29.96,SSW,202,11.6,18.5,61,0.00,,,0.00,WUHU21636XXSP,2013-06-20 16:37:00,
2013-06-20 11:47:00,81.3,65.5,29.95,WSW,247,10.0,22.3,59,0.00,,,0.00,WUHU21636XXSP,2013-06-20 16:47:00,
2013-06-20 11:57:00,81.7,65.3,29.95,WSW,247,12.5,17.8,58,0.00,,,0.00,WUHU21636XXSP,2013-06-20 16:57:00,
2013-06-20 12:07:00,82.2,64.8,29.95,SSW,202,5.3,21.2,56,0.00,,,0.00,WUHU21636XXSP,2013-06-20 17:07:00,
2013-06-20 12:17:00,82.8,65.8,29.95,SSW,202,8.2,19.4,57,0.00,,,0.00,WUHU21636XXSP,2013-06-20 17:17:00,
2013-06-20 12:27:00,83.1,65.1,29.95,WSW,247,10.2,20.1,55,0.00,,,0.00,WUHU21636XXSP,2013-06-20 17:27:00,
2013-06-20 12:37:00,83.8,66.4,29.95,South,180,9.3,18.5,56,0.00,,,0.00,WUHU21636XXSP,2013-06-20 17:37:00,
2013-06-20 12:47:00,84.0,65.5,29.95,South,180,8.9,18.7,54,0.00,,,0.00,WUHU21636XXSP,2013-06-20 17:47:00,
2013-06-20 12:57:00,84.6,66.6,29.95,SSW,202,6.2,14.3,55,0.00,,,0.00,WUHU21636XXSP,2013-06-20 17:57:00,
2013-06-20 13:07:00,85.6,66.9,29.95,South,180,4.9,17.4,54,0.00,,,0.00,WUHU21636XXSP,2013-06-20 18:07:00,
2013-06-20 13:17:00,86.5,67.3,29.96,SW,225,8.7,14.7,53,0.00,,,0.00,WUHU21636XXSP,2013-06-20 18:17:00,
2013-06-20 13:27:00,87.1,67.3,29.95,SW,225,8.2,18.1,52,0.00,,,0.00,WUHU21636XXSP,2013-06-20 18:27:00,
2013-06-20 13:37:00,87.4,66.6,29.95,SW,225,1.7,15.8,49,0.00,,,0.00,WUHU21636XXSP,2013-06-20 18:37:00,
2013-06-20 13:47:00,88.2,67.6,29.95,SSW,202,3.5,14.3,51,0.00,,,0.00,WUHU21636XXSP,2013-06-20 18:47:00,
2013-06-20 13:57:00,88.9,68.4,29.95,South,180,1.7,13.1,51,0.00,,,0.00,WUHU21636XXSP,2013-06-20 18:57:00,
2013-06-20 14:07:00,89.8,66.7,29.94,SSW,202,8.5,16.5,48,0.00,,,0.00,WUHU21636XXSP,2013-06-20 19:07:00,
2013-06-20 14:17:00,90.3,65.3,29.94,WSW,247,5.3,16.7,44,0.00,,,0.00,WUHU21636XXSP,2013-06-20 19:17:00,
2013-06-20 14:27:00,90.5,68.0,29.94,SE,135,4.0,20.3,48,0.00,,,0.00,WUHU21636XXSP,2013-06-20 19:27:00,
2013-06-20 14:37:00,91.2,66.0,29.93,SSW,202,7.8,15.4,44,0.00,,,0.00,WUHU21636XXSP,2013-06-20 19:37:00,
2013-06-20 14:47:00,91.8,67.8,29.93,SSW,202,6.9,14.0,46,0.00,,,0.00,WUHU21636XXSP,2013-06-20 19:47:00,
2013-06-20 14:57:00,92.1,68.2,29.92,SE,135,7.3,14.5,46,0.00,,,0.00,WUHU21636XXSP,2013-06-20 19:57:00,
2013-06-20 15:07:00,92.5,67.8,29.92,SSE,157,6.4,18.3,46,0.00,,,0.00,WUHU21636XXSP,2013-06-20 20:07:00,
2013-06-20 15:17:00,92.8,68.2,29.92,South,180,1.5,14.0,44,0.00,,,0.00,WUHU21636XXSP,2013-06-20 20:17:00,
2013-06-20 15:27:00,93.4,68.0,29.92,SE,135,5.5,16.5,42,0.00,,,0.00,WUHU21636XXSP,2013-06-20 20:27:00,
2013-06-20 15:37:00,93.9,66.6,29.92,South,180,1.7,13.8,41,0.00,,,0.00,WUHU21636XXSP,2013-06-20 20:37:00,
2013-06-20 15:47:00,94.6,64.9,29.91,South,180,5.3,16.3,39,0.00,,,0.00,WUHU21636XXSP,2013-06-20 20:47:00,
2013-06-20 15:57:00,94.3,66.2,29.91,SW,225,3.5,14.9,40,0.00,,,0.00,WUHU21636XXSP,2013-06-20 20:57:00,
2013-06-20 16:07:00,94.8,66.7,29.91,South,180,4.6,15.4,40,0.00,,,0.00,WUHU21636XXSP,2013-06-20 21:07:00,
2013-06-20 16:17:00,95.2,66.2,29.91,South,180,5.3,19.4,39,0.00,,,0.00,WUHU21636XXSP,2013-06-20 21:17:00,
2013-06-20 16:27:00,95.7,65.8,29.91,SE,135,4.9,19.9,38,0.00,,,0.00,WUHU21636XXSP,2013-06-20 21:27:00,
2013-06-20 16:37:00,96.4,65.7,29.91,SSW,202,7.8,22.1,37,0.00,,,0.00,WUHU21636XXSP,2013-06-20 21:37:00,
2013-06-20 16:47:00,96.4,65.7,29.90,South,180,3.8,20.3,37,0.00,,,0.00,WUHU21636XXSP,2013-06-20 21:47:00,
2013-06-20 16:57:00,97.0,65.3,29.90,SSW,202,2.4,14.9,36,0.00,,,0.00,WUHU21636XXSP,2013-06-20 21:57:00,
2013-06-20 17:07:00,97.7,63.5,29.90,SW,225,2.4,21.4,33,0.00,,,0.00,WUHU21636XXSP,2013-06-20 22:07:00,
2013-06-20 17:17:00,98.2,64.8,29.90,SSW,202,8.2,22.5,34,0.00,,,0.00,WUHU21636XXSP,2013-06-20 22:17:00,
2013-06-20 17:27:00,98.4,63.3,29.89,SE,135,5.3,21.2,32,0.00,,,0.00,WUHU21636XXSP,2013-06-20 22:27:00,
2013-06-20 17:37:00,98.2,63.1,29.90,SSW,202,12.7,25.0,32,0.00,,,0.00,WUHU21636XXSP,2013-06-20 22:37:00,
2013-06-20 17:47:00,97.5,62.4,29.89,SSE,157,4.2,18.5,33,0.00,,,0.00,WUHU21636XXSP,2013-06-20 22:47:00,
2013-06-20 17:57:00,97.5,62.4,29.89,SW,225,9.3,19.6,32,0.00,,,0.00,WUHU21636XXSP,2013-06-20 22:57:00,
2013-06-20 18:07:00,97.7,61.9,29.89,South,180,3.5,18.1,30,0.00,,,0.00,WUHU21636XXSP,2013-06-20 23:07:00,
2013-06-20 18:17:00,97.3,61.5,29.89,SSW,202,14.7,20.3,31,0.00,,,0.00,WUHU21636XXSP,2013-06-20 23:17:00,
2013-06-20 18:27:00,97.0,62.8,29.89,SSW,202,16.3,23.4,33,0.00,,,0.00,WUHU21636XXSP,2013-06-20 23:27:00,
2013-06-20 18:37:00,96.6,63.3,29.89,South,180,5.8,19.6,34,0.00,,,0.00,WUHU21636XXSP,2013-06-20 23:37:00,
2013-06-20 18:47:00,95.9,62.8,29.89,SSE,157,2.9,18.5,34,0.00,,,0.00,WUHU21636XXSP,2013-06-20 23:47:00,
2013-06-20 18:57:00,95.2,62.1,29.89,SSE,157,6.0,14.0,34,0.00,,,0.00,WUHU21636XXSP,2013-06-20 23:57:00,
2013-06-20 19:07:00,95.0,62.8,29.89,SSE,157,7.3,11.8,35,0.00,,,0.00,WUHU21636XXSP,2013-06-21 00:07:00,
2013-06-20 19:17:00,94.6,61.7,29.88,South,180,5.3,17.6,35,0.00,,,0.00,WUHU21636XXSP,2013-06-21 00:17:00,
2013-06-20 19:27:00,94.3,61.3,29.89,SSW,202,12.0,21.9,34,0.00,,,0.00,WUHU21636XXSP,2013-06-21 00:27:00,
2013-06-20 19:37:00,94.3,62.1,29.90,SSW,202,9.8,18.3,34,0.00,,,0.00,WUHU21636XXSP,2013-06-21 00:37:00,
2013-06-20 19:47:00,93.7,60.8,29.90,SSW,202,9.6,18.3,34,0.00,,,0.00,WUHU21636XXSP,2013-06-21 00:47:00,
2013-06-20 19:57:00,93.4,60.4,29.91,SSW,202,12.7,18.7,35,0.00,,,0.00,WUHU21636XXSP,2013-06-21 00:57:00,
2013-06-20 20:07:00,92.8,60.8,29.91,South,180,11.1,25.7,35,0.00,,,0.00,WUHU21636XXSP,2013-06-21 01:07:00,
2013-06-20 20:17:00,92.3,61.2,29.91,SSW,202,11.1,19.0,35,0.08,,,0.09,WUHU21636XXSP,2013-06-21 01:17:00,
2013-06-20 20:27:00,91.8,61.5,29.91,SSW,202,5.5,15.4,38,0.08,,,0.09,WUHU21636XXSP,2013-06-21 01:27:00,
2013-06-20 20:37:00,91.0,61.7,29.91,SSW,202,7.8,19.6,38,0.08,,,0.09,WUHU21636XXSP,2013-06-21 01:37:00,
2013-06-20 20:47:00,90.7,62.2,29.90,SW,225,10.5,20.3,39,0.08,,,0.09,WUHU21636XXSP,2013-06-21 01:47:00,
2013-06-20 20:57:00,90.3,61.9,29.91,South,180,11.4,27.9,39,0.08,,,0.09,WUHU21636XXSP,2013-06-21 01:57:00,
2013-06-20 21:07:00,90.3,58.6,29.92,SSW,202,16.7,29.3,35,0.08,,,0.09,WUHU21636XXSP,2013-06-21 02:07:00,
2013-06-20 21:17:00,87.4,62.8,29.92,South,180,6.7,33.5,44,0.08,,,0.09,WUHU21636XXSP,2013-06-21 02:17:00,
2013-06-20 21:27:00,84.0,60.3,29.91,SE,135,7.1,17.0,45,0.08,,,0.09,WUHU21636XXSP,2013-06-21 02:27:00,
2013-06-20 21:37:00,83.1,58.8,29.92,SSE,157,0.0,10.5,43,0.08,,,0.09,WUHU21636XXSP,2013-06-21 02:37:00,
2013-06-20 21:47:00,82.9,57.9,29.92,SE,135,0.0,0.0,44,0.08,,,0.09,WUHU21636XXSP,2013-06-21 02:47:00,
2013-06-20 21:57:00,82.4,58.1,29.92,SE,135,0.0,0.0,45,0.08,,,0.09,WUHU21636XXSP,2013-06-21 02:57:00,
2013-06-20 22:07:00,82.2,58.6,29.93,SE,135,0.0,0.0,45,0.00,,,0.09,WUHU21636XXSP,2013-06-21 03:07:00,
2013-06-20 22:17:00,82.0,58.5,29.94,SE,135,0.0,2.2,44,0.00,,,0.09,WUHU21636XXSP,2013-06-21 03:17:00,
2013-06-20 22:27:00,81.5,55.4,29.95,SE,135,0.0,0.0,41,0.00,,,0.09,WUHU21636XXSP,2013-06-21 03:27:00,
2013-06-20 22:37:00,81.5,55.4,29.96,SW,225,10.2,16.5,41,0.00,,,0.09,WUHU21636XXSP,2013-06-21 03:37:00,
2013-06-20 22:48:00,82.8,55.9,29.96,SSE,157,12.3,21.6,40,0.00,,,0.09,WUHU21636XXSP,2013-06-21 03:48:00,
2013-06-20 22:58:00,84.0,60.3,29.96,SSW,202,9.8,20.8,45,0.00,,,0.09,WUHU21636XXSP,2013-06-21 03:58:00,
2013-06-20 23:08:00,84.9,61.7,29.96,South,180,9.8,25.9,46,0.00,,,0.09,WUHU21636XXSP,2013-06-21 04:08:00,
2013-06-20 23:18:00,84.9,61.7,29.96,SSE,157,3.1,26.6,46,0.00,,,0.09,WUHU21636XXSP,2013-06-21 04:18:00,
2013-06-20 23:28:00,84.4,62.4,29.96,SSW,202,11.4,22.1,48,0.00,,,0.09,WUHU21636XXSP,2013-06-21 04:28:00,
2013-06-20 23:38:00,84.6,63.9,29.96,SSW,202,9.6,26.6,50,0.00,,,0.09,WUHU21636XXSP,2013-06-21 04:38:00,
2013-06-20 23:48:00,84.6,64.9,29.97,SE,135,6.2,21.9,52,0.00,,,0.09,WUHU21636XXSP,2013-06-21 04:48:00,
2013-06-20 23:58:00,84.4,65.3,29.97,SSW,202,5.3,21.9,53,0.00,,,0.09,WUHU21636XXSP,2013-06-21 04:58:00,